| time (UTC) | temp F | wind direction | speed MPH | gust MPH | rain 1hr in | rain 24hr in | rain mn in | humidity % | barometer mb |
| 20260505094504 | 42 | 355 | 12.0 | 18.0 | 0.01 | 0.15 | 0.04 | 82 | 1015.9 |
| 20260505093025 | 41 | 349 | 2.0 | 9.0 | 0.01 | 0.15 | 0.04 | 91 | 1015.8 |
| 20260505091504 | 40 | 340 | 7.0 | 19.0 | 0.01 | 0.15 | 0.04 | 89 | 1015.8 |
| 20260505090004 | 41 | 349 | 15.0 | 22.0 | 0.00 | 0.14 | 0.03 | 85 | 1015.5 |
| 20260505084504 | 42 | 356 | 13.0 | 19.0 | 0.00 | 0.14 | 0.03 | 85 | 1015.3 |
| 20260505083004 | 42 | 357 | 13.0 | 19.0 | 0.00 | 0.14 | 0.03 | 84 | 1015.3 |
| 20260505081504 | 42 | 357 | 14.0 | 19.0 | 0.00 | 0.14 | 0.03 | 87 | 1015.1 |
| 20260505080004 | 41 | 358 | 17.0 | 23.0 | 0.00 | 0.14 | 0.03 | 87 | 1014.8 |
| 20260505074525 | 41 | 359 | 14.0 | 20.0 | 0.00 | 0.14 | 0.03 | 89 | 1014.7 |
| 20260505073004 | 41 | 357 | 15.0 | 22.0 | 0.00 | 0.14 | 0.03 | 88 | 1014.6 |
| 20260505071525 | 40 | 358 | 14.0 | 21.0 | 0.00 | 0.14 | 0.03 | 91 | 1014.4 |
| 20260505070004 | 40 | 358 | 15.0 | 20.0 | 0.00 | 0.14 | 0.03 | 93 | 1014.5 |
| 20260505064504 | 40 | 356 | 15.0 | 20.0 | 0.00 | 0.14 | 0.03 | 95 | 1014.4 |
| 20260505063004 | 40 | 356 | 15.0 | 22.0 | 0.01 | 0.14 | 0.03 | 96 | 1014.1 |
| 20260505061504 | 40 | 3 | 14.0 | 20.0 | 0.01 | 0.14 | 0.03 | 96 | 1014.0 |
| 20260505060004 | 40 | 4 | 16.0 | 24.0 | 0.01 | 0.14 | 0.03 | 96 | 1013.8 |
| 20260505054525 | 40 | 3 | 16.0 | 24.0 | 0.01 | 0.14 | 0.03 | 96 | 1013.5 |
| 20260505053004 | 41 | 359 | 16.0 | 22.0 | 0.00 | 0.13 | 0.02 | 96 | 1013.4 |
| 20260505051504 | 41 | 357 | 15.0 | 20.0 | 0.00 | 0.13 | 0.02 | 96 | 1013.1 |
| 20260505041525 | 42 | 285 | 7.0 | 12.0 | 0.00 | 0.13 | 0.02 | 97 | 1012.1 |
| 20260505040004 | 41 | 291 | 6.0 | 12.0 | 0.00 | 0.13 | 0.02 | 97 | 1012.1 |
| 20260505034504 | 41 | 289 | 8.0 | 12.0 | 0.00 | 0.13 | 0.02 | 96 | 1012.2 |
| 20260505033025 | 41 | 287 | 7.0 | 13.0 | 0.00 | 0.13 | 0.02 | 96 | 1012.1 |
| 20260505031525 | 42 | 286 | 6.0 | 11.0 | 0.00 | 0.13 | 0.02 | 96 | 1012.1 |
| 20260505030004 | 42 | 285 | 4.0 | 10.0 | 0.00 | 0.13 | 0.02 | 96 | 1012.1 |
| 20260505024525 | 42 | 287 | 4.0 | 10.0 | 0.00 | 0.13 | 0.02 | 97 | 1012.1 |
| 20260505023004 | 43 | 287 | 11.0 | 15.0 | 0.00 | 0.13 | 0.02 | 97 | 1012.0 |
| 20260505021525 | 42 | 284 | 7.0 | 14.0 | 0.00 | 0.13 | 0.02 | 97 | 1012.0 |
| 20260505020004 | 43 | 282 | 5.0 | 12.0 | 0.00 | 0.13 | 0.02 | 97 | 1012.0 |
| 20260505014504 | 43 | 283 | 6.0 | 12.0 | 0.00 | 0.13 | 0.02 | 97 | 1012.0 |
| 20260505013004 | 43 | 286 | 8.0 | 15.0 | 0.00 | 0.13 | 0.02 | 97 | 1011.8 |
| 20260505011504 | 43 | 287 | 9.0 | 14.0 | 0.00 | 0.13 | 0.02 | 97 | 1011.8 |
| 20260505010025 | 44 | 288 | 11.0 | 16.0 | 0.00 | 0.13 | 0.02 | 96 | 1011.8 |
| 20260505004525 | 44 | 291 | 9.0 | 14.0 | 0.00 | 0.13 | 0.02 | 97 | 1011.9 |
| 20260505003004 | 44 | 291 | 7.0 | 11.0 | 0.00 | 0.13 | 0.02 | 97 | 1012.0 |
| 20260505001504 | 44 | 296 | 4.0 | 7.0 | 0.01 | 0.13 | 0.02 | 96 | 1012.1 |
| 20260505000004 | 45 | 306 | 4.0 | 7.0 | 0.02 | 0.13 | 0.02 | 97 | 1012.1 |
| 20260504234504 | 45 | 305 | 3.0 | 4.0 | 0.02 | 0.13 | 0.02 | 97 | 1012.1 |
| 20260504233003 | 45 | 298 | 2.0 | 3.0 | 0.03 | 0.13 | 0.02 | 97 | 1012.1 |
| 20260504231504 | 45 | 0 | 0.0 | 0.0 | 0.02 | 0.12 | 0.01 | 96 | 1012.1 |
| 20260504230005 | 45 | 307 | 2.0 | 4.0 | 0.01 | 0.11 | 0.00 | 96 | 1012.1 |
| 20260504224525 | 45 | 297 | 3.0 | 8.0 | 0.01 | 0.11 | 0.11 | 96 | 1012.1 |
| 20260504223004 | 45 | 0 | 0.0 | 0.0 | 0.00 | 0.10 | 0.10 | 96 | 1012.1 |
| 20260504221524 | 45 | 0 | 0.0 | 0.0 | 0.03 | 0.10 | 0.10 | 96 | 1012.1 |
| 20260504220004 | 45 | 0 | 0.0 | 2.0 | 0.04 | 0.10 | 0.10 | 96 | 1012.2 |
| 20260504214504 | 45 | 17 | 1.0 | 3.0 | 0.04 | 0.10 | 0.10 | 95 | 1012.3 |
| 20260504213003 | 46 | 345 | 4.0 | 10.0 | 0.06 | 0.10 | 0.10 | 95 | 1012.3 |
| 20260504211503 | 46 | 226 | 1.0 | 3.0 | 0.04 | 0.07 | 0.07 | 95 | 1012.3 |
| 20260504210004 | 46 | 40 | 1.0 | 7.0 | 0.03 | 0.06 | 0.06 | 95 | 1012.3 |
| 20260504204503 | 46 | 10 | 5.0 | 11.0 | 0.03 | 0.06 | 0.06 | 94 | 1012.2 |
| 20260504203004 | 47 | 0 | 0.0 | 0.0 | 0.01 | 0.04 | 0.04 | 94 | 1012.2 |
| 20260504201504 | 47 | 0 | 0.0 | 0.0 | 0.01 | 0.03 | 0.03 | 93 | 1012.2 |
| 20260504200004 | 47 | 0 | 0.0 | 0.0 | 0.03 | 0.03 | 0.03 | 93 | 1012.1 |
| 20260504194503 | 47 | 20 | 0.0 | 2.0 | 0.03 | 0.03 | 0.03 | 92 | 1012.2 |
| 20260504193003 | 47 | 19 | 2.0 | 4.0 | 0.03 | 0.03 | 0.03 | 92 | 1012.1 |
| 20260504191503 | 48 | 15 | 2.0 | 3.0 | 0.02 | 0.02 | 0.02 | 91 | 1012.1 |
| 20260504190003 | 48 | 8 | 4.0 | 5.0 | 0.00 | 0.00 | 0.00 | 90 | 1012.0 |
| 20260504184503 | 49 | 359 | 5.0 | 10.0 | 0.00 | 0.00 | 0.00 | 89 | 1011.9 |
| 20260504183004 | 50 | 350 | 6.0 | 10.0 | 0.00 | 0.00 | 0.00 | 88 | 1011.7 |
| 20260504181503 | 50 | 323 | 4.0 | 9.0 | 0.00 | 0.00 | 0.00 | 87 | 1011.6 |
| 20260504180004 | 50 | 308 | 4.0 | 9.0 | 0.00 | 0.00 | 0.00 | 85 | 1011.6 |
| 20260504174504 | 50 | 327 | 2.0 | 3.0 | 0.00 | 0.00 | 0.00 | 87 | 1011.6 |
| 20260504173003 | 50 | 331 | 6.0 | 10.0 | 0.00 | 0.00 | 0.00 | 85 | 1011.7 |
| 20260504171503 | 50 | 327 | 13.0 | 20.0 | 0.00 | 0.00 | 0.00 | 83 | 1011.6 |